16-06-2023, 00:00:08,    130,    0.0,   16.5,   0.00,   0.00, 1017.3,   50.5, -999.0
16-06-2023, 00:00:18,    130,    0.0,   16.6,   0.00,   0.00, 1017.3,   50.6, -999.0
16-06-2023, 00:00:28,    130,    0.0,   16.5,   0.00,   0.00, 1017.3,   50.8, -999.0
16-06-2023, 00:00:38,    130,    0.0,   16.4,   0.00,   0.00, 1017.3,   50.7, -999.0
16-06-2023, 00:00:47,    130,    0.0,   16.5,   0.00,   0.00, 1017.3,   50.8, -999.0
16-06-2023, 00:00:58,    130,    0.0,   16.5,   0.00,   0.00, 1017.3,   50.8, -999.0
16-06-2023, 00:01:08,    130,    0.0,   16.5,   0.00,   0.00, 1017.3,   50.7, -999.0
16-06-2023, 00:01:17,    130,    0.0,   16.5,   0.00,   0.00, 1017.3,   50.8, -999.0
16-06-2023, 00:01:27,    130,    0.0,   16.5,   0.00,   0.00, 1017.3,   50.7, -999.0
16-06-2023, 00:01:38,    130,    0.0,   16.5,   0.00,   0.00, 1017.3,   50.8, -999.0
16-06-2023, 00:01:48,    131,    0.0,   16.5,   0.00,   0.00, 1017.3,   50.7, -999.0
16-06-2023, 00:01:57,    130,    0.0,   16.5,   0.00,   0.00, 1017.2,   50.8, -999.0
16-06-2023, 00:02:07,    130,    0.0,   16.5,   0.00,   0.00, 1017.3,   50.7, -999.0
16-06-2023, 00:02:18,    132,    0.0,   16.5,   0.00,   0.00, 1017.3,   50.9, -999.0
16-06-2023, 00:02:27,    129,    0.0,   16.4,   0.00,   0.00, 1017.3,   50.7, -999.0
16-06-2023, 00:02:37,    130,    0.0,   16.5,   0.00,   0.00, 1017.3,   50.7, -999.0
16-06-2023, 00:02:47,    129,    0.0,   16.5,   0.00,   0.00, 1017.3,   50.7, -999.0
16-06-2023, 00:02:57,    130,    0.0,   16.6,   0.00,   0.00, 1017.3,   50.8, -999.0
16-06-2023, 00:03:07,    130,    0.0,   16.5,   0.00,   0.00, 1017.3,   51.0, -999.0
16-06-2023, 00:03:17,    130,    0.0,   16.5,   0.00,   0.00, 1017.3,   50.8, -999.0
16-06-2023, 00:03:27,    130,    0.0,   16.5,   0.00,   0.00, 1017.3,   50.9, -999.0
16-06-2023, 00:03:37,    130,    0.0,   16.5,   0.00,   0.00, 1017.3,   50.8, -999.0
16-06-2023, 00:03:47,    131,    0.0,   16.5,   0.00,   0.00, 1017.3,   50.9, -999.0
16-06-2023, 00:03:57,    130,    0.0,   16.4,   0.00,   0.00, 1017.3,   50.8, -999.0
16-06-2023, 00:04:07,    130,    0.0,   16.4,   0.00,   0.00, 1017.3,   51.0, -999.0
16-06-2023, 00:04:17,    130,    0.0,   16.4,   0.00,   0.00, 1017.3,   51.0, -999.0
16-06-2023, 00:04:27,    130,    0.0,   16.4,   0.00,   0.00, 1017.3,   51.1, -999.0
16-06-2023, 00:04:37,    130,    0.0,   16.3,   0.00,   0.00, 1017.3,   51.1, -999.0
16-06-2023, 00:04:47,    130,    0.0,   16.3,   0.00,   0.00, 1017.3,   51.1, -999.0
16-06-2023, 00:04:57,    130,    0.0,   16.3,   0.00,   0.00, 1017.3,   51.3, -999.0
16-06-2023, 00:05:07,    130,    0.0,   16.2,   0.00,   0.00, 1017.3,   51.4, -999.0
16-06-2023, 00:05:17,    130,    0.0,   16.2,   0.00,   0.00, 1017.3,   51.4, -999.0
16-06-2023, 00:05:27,    130,    0.0,   16.2,   0.00,   0.00, 1017.3,   51.5, -999.0
16-06-2023, 00:05:37,    130,    0.0,   16.1,   0.00,   0.00, 1017.3,   51.8, -999.0
16-06-2023, 00:05:47,    130,    0.0,   16.0,   0.00,   0.00, 1017.3,   52.1, -999.0
16-06-2023, 00:05:57,    130,    0.0,   16.0,   0.00,   0.00, 1017.3,   52.3, -999.0
16-06-2023, 00:06:07,    130,    0.0,   15.9,   0.00,   0.00, 1017.3,   52.2, -999.0
16-06-2023, 00:06:17,    130,    0.0,   15.8,   0.00,   0.00, 1017.3,   52.4, -999.0
16-06-2023, 00:06:27,    130,    0.0,   15.8,   0.00,   0.00, 1017.3,   52.5, -999.0
16-06-2023, 00:06:37,    130,    0.0,   15.8,   0.00,   0.00, 1017.3,   52.7, -999.0
16-06-2023, 00:06:47,    130,    0.0,   15.7,   0.00,   0.00, 1017.3,   52.9, -999.0
16-06-2023, 00:06:57,    130,    0.0,   15.7,   0.00,   0.00, 1017.3,   53.0, -999.0
16-06-2023, 00:07:07,    129,    0.0,   15.6,   0.00,   0.00, 1017.3,   53.1, -999.0
16-06-2023, 00:07:17,    130,    0.0,   15.6,   0.00,   0.00, 1017.3,   53.3, -999.0
16-06-2023, 00:07:27,    130,    0.0,   15.6,   0.00,   0.00, 1017.3,   53.2, -999.0
16-06-2023, 00:07:37,    130,    0.0,   15.5,   0.00,   0.00, 1017.3,   53.5, -999.0
16-06-2023, 00:07:47,    130,    0.0,   15.4,   0.00,   0.00, 1017.3,   53.7, -999.0
16-06-2023, 00:07:56,    130,    0.0,   15.4,   0.00,   0.00, 1017.3,   53.8, -999.0
16-06-2023, 00:08:07,    130,    0.0,   15.4,   0.00,   0.00, 1017.3,   54.0, -999.0
16-06-2023, 00:08:17,    130,    0.0,   15.3,   0.00,   0.00, 1017.3,   54.0, -999.0
16-06-2023, 00:08:26,    130,    0.0,   15.2,   0.00,   0.00, 1017.3,   54.1, -999.0
16-06-2023, 00:08:36,    130,    0.0,   15.2,   0.00,   0.00, 1017.3,   54.1, -999.0
16-06-2023, 00:08:47,    130,    0.0,   15.2,   0.00,   0.00, 1017.3,   54.3, -999.0
16-06-2023, 00:08:57,    130,    0.0,   15.2,   0.00,   0.00, 1017.3,   54.3, -999.0
16-06-2023, 00:09:06,    131,    0.0,   15.1,   0.00,   0.00, 1017.3,   54.4, -999.0
16-06-2023, 00:09:16,    130,    0.0,   15.1,   0.00,   0.00, 1017.3,   54.5, -999.0
16-06-2023, 00:09:27,    130,    0.0,   15.0,   0.00,   0.00, 1017.3,   54.6, -999.0
16-06-2023, 00:09:36,    130,    0.0,   15.1,   0.00,   0.00, 1017.3,   54.5, -999.0
16-06-2023, 00:09:46,    130,    0.0,   15.0,   0.00,   0.00, 1017.3,   54.9, -999.0
16-06-2023, 00:09:57,    130,    0.0,   14.9,   0.00,   0.00, 1017.3,   54.8, -999.0
16-06-2023, 00:10:06,    130,    0.0,   15.0,   0.00,   0.00, 1017.3,   54.9, -999.0
16-06-2023, 00:10:16,    130,    0.0,   14.9,   0.00,   0.00, 1017.3,   55.0, -999.0
16-06-2023, 00:10:26,    130,    0.0,   15.0,   0.00,   0.00, 1017.3,   54.9, -999.0
16-06-2023, 00:10:36,    130,    0.0,   14.8,   0.00,   0.00, 1017.3,   55.2, -999.0
16-06-2023, 00:10:46,    130,    0.0,   14.9,   0.00,   0.00, 1017.3,   55.3, -999.0
16-06-2023, 00:10:56,    130,    0.0,   14.9,   0.00,   0.00, 1017.3,   55.3, -999.0
16-06-2023, 00:11:06,    130,    0.0,   15.0,   0.00,   0.00, 1017.3,   55.4, -999.0
16-06-2023, 00:11:16,    129,    0.0,   14.8,   0.00,   0.00, 1017.3,   55.4, -999.0
16-06-2023, 00:11:26,    130,    0.0,   14.9,   0.00,   0.00, 1017.3,   55.4, -999.0
16-06-2023, 00:11:36,    130,    0.0,   14.9,   0.00,   0.00, 1017.3,   55.6, -999.0
16-06-2023, 00:11:46,    130,    0.0,   14.9,   0.00,   0.00, 1017.3,   55.6, -999.0
16-06-2023, 00:11:56,    130,    0.0,   14.9,   0.00,   0.00, 1017.3,   55.7, -999.0
16-06-2023, 00:12:06,    130,    0.0,   14.8,   0.00,   0.00, 1017.3,   55.8, -999.0
16-06-2023, 00:12:16,    130,    0.0,   14.8,   0.00,   0.00, 1017.3,   55.7, -999.0
16-06-2023, 00:12:26,    131,    0.0,   14.7,   0.00,   0.00, 1017.3,   55.8, -999.0
16-06-2023, 00:12:36,    130,    0.0,   14.7,   0.00,   0.00, 1017.3,   56.0, -999.0
16-06-2023, 00:12:46,    130,    0.0,   14.7,   0.00,   0.00, 1017.3,   56.0, -999.0
16-06-2023, 00:12:56,    130,    0.0,   14.8,   0.00,   0.00, 1017.3,   56.0, -999.0
16-06-2023, 00:13:06,    130,    0.0,   14.8,   0.00,   0.00, 1017.3,   56.2, -999.0
16-06-2023, 00:13:16,    130,    0.0,   14.8,   0.00,   0.00, 1017.3,   56.2, -999.0
16-06-2023, 00:13:26,    130,    0.0,   14.9,   0.00,   0.00, 1017.3,   56.3, -999.0
16-06-2023, 00:13:36,    130,    0.0,   14.9,   0.00,   0.00, 1017.3,   56.2, -999.0
16-06-2023, 00:13:46,    130,    0.0,   14.8,   0.00,   0.00, 1017.3,   56.3, -999.0
16-06-2023, 00:13:56,    130,    0.0,   14.8,   0.00,   0.00, 1017.3,   56.2, -999.0
16-06-2023, 00:14:06,    130,    0.0,   15.0,   0.00,   0.00, 1017.3,   56.3, -999.0
16-06-2023, 00:14:16,    130,    0.0,   14.9,   0.00,   0.00, 1017.3,   56.3, -999.0
16-06-2023, 00:14:26,    132,    0.0,   14.9,   0.00,   0.00, 1017.3,   56.4, -999.0
16-06-2023, 00:14:36,    130,    0.0,   14.8,   0.00,   0.00, 1017.3,   56.2, -999.0
16-06-2023, 00:14:46,    130,    0.0,   14.9,   0.00,   0.00, 1017.3,   56.4, -999.0
16-06-2023, 00:14:55,    130,    0.0,   14.8,   0.00,   0.00, 1017.3,   56.4, -999.0
16-06-2023, 00:15:06,    130,    0.0,   14.9,   0.00,   0.00, 1017.3,   56.3, -999.0
16-06-2023, 00:15:16,    130,    0.0,   14.8,   0.00,   0.00, 1017.3,   56.6, -999.0
16-06-2023, 00:15:26,    130,    0.0,   14.9,   0.00,   0.00, 1017.3,   56.5, -999.0
16-06-2023, 00:15:35,    130,    0.0,   14.8,   0.00,   0.00, 1017.3,   56.5, -999.0
16-06-2023, 00:15:46,    130,    0.0,   14.8,   0.00,   0.00, 1017.3,   56.4, -999.0
16-06-2023, 00:15:56,    130,    0.0,   14.8,   0.00,   0.00, 1017.3,   56.5, -999.0
16-06-2023, 00:16:05,    131,    0.0,   14.7,   0.00,   0.00, 1017.3,   56.6, -999.0
16-06-2023, 00:16:15,    130,    0.0,   14.7,   0.00,   0.00, 1017.3,   56.6, -999.0
16-06-2023, 00:16:26,    130,    0.0,   14.7,   0.00,   0.00, 1017.3,   56.6, -999.0
16-06-2023, 00:16:35,    130,    0.0,   14.8,   0.00,   0.00, 1017.4,   56.7, -999.0
16-06-2023, 00:16:45,    130,    0.0,   14.8,   0.00,   0.00, 1017.3,   56.8, -999.0
16-06-2023, 00:16:55,    130,    0.0,   14.7,   0.00,   0.00, 1017.3,   57.0, -999.0
16-06-2023, 00:17:05,    130,    0.0,   14.8,   0.00,   0.00, 1017.4,   56.9, -999.0
16-06-2023, 00:17:15,    130,    0.0,   14.7,   0.00,   0.00, 1017.4,   56.8, -999.0
16-06-2023, 00:17:25,    130,    0.0,   14.8,   0.00,   0.00, 1017.3,   56.7, -999.0
16-06-2023, 00:17:36,    130,    0.0,   14.7,   0.00,   0.00, 1017.3,   56.8, -999.0
16-06-2023, 00:17:45,    131,    0.0,   14.8,   0.00,   0.00, 1017.3,   56.7, -999.0
16-06-2023, 00:17:55,    131,    0.0,   14.7,   0.00,   0.00, 1017.3,   56.8, -999.0
16-06-2023, 00:18:05,    130,    0.0,   14.8,   0.00,   0.00, 1017.4,   56.8, -999.0
16-06-2023, 00:18:15,    130,    0.0,   14.7,   0.00,   0.00, 1017.3,   56.8, -999.0
16-06-2023, 00:18:25,    130,    0.0,   14.9,   0.00,   0.00, 1017.4,   56.8, -999.0
16-06-2023, 00:18:35,    130,    0.0,   15.0,   0.00,   0.00, 1017.3,   56.9, -999.0
16-06-2023, 00:18:45,    130,    0.0,   15.0,   0.00,   0.00, 1017.3,   56.7, -999.0
16-06-2023, 00:18:55,    130,    0.0,   14.8,   0.00,   0.00, 1017.3,   56.8, -999.0
16-06-2023, 00:19:05,    131,    0.0,   14.9,   0.00,   0.00, 1017.3,   56.7, -999.0
16-06-2023, 00:19:15,    130,    0.0,   15.0,   0.00,   0.00, 1017.3,   56.7, -999.0
16-06-2023, 00:19:25,    130,    0.0,   15.0,   0.00,   0.00, 1017.3,   56.8, -999.0
16-06-2023, 00:19:35,    130,    0.0,   14.9,   0.00,   0.00, 1017.3,   56.7, -999.0
16-06-2023, 00:19:45,    130,    0.0,   15.0,   0.00,   0.00, 1017.3,   56.6, -999.0
16-06-2023, 00:19:55,    130,    0.0,   15.0,   0.00,   0.00, 1017.3,   56.5, -999.0
16-06-2023, 00:20:05,    131,    0.0,   14.9,   0.00,   0.00, 1017.3,   56.5, -999.0
16-06-2023, 00:20:15,    130,    0.0,   14.9,   0.00,   0.00, 1017.3,   56.5, -999.0
16-06-2023, 00:20:25,    131,    0.0,   14.9,   0.00,   0.00, 1017.3,   56.4, -999.0
16-06-2023, 00:20:35,    130,    0.0,   14.8,   0.00,   0.00, 1017.3,   56.6, -999.0
16-06-2023, 00:20:45,    130,    0.0,   14.9,   0.00,   0.00, 1017.3,   56.5, -999.0
16-06-2023, 00:20:55,    130,    0.0,   14.9,   0.00,   0.00, 1017.3,   56.5, -999.0
16-06-2023, 00:21:05,    130,    0.0,   14.9,   0.00,   0.00, 1017.3,   56.6, -999.0
16-06-2023, 00:21:15,    130,    0.0,   14.9,   0.00,   0.00, 1017.3,   56.6, -999.0
16-06-2023, 00:21:25,    131,    0.0,   14.9,   0.00,   0.00, 1017.3,   56.5, -999.0
16-06-2023, 00:21:35,    130,    0.0,   14.9,   0.00,   0.00, 1017.3,   56.5, -999.0
16-06-2023, 00:21:45,    130,    0.0,   14.9,   0.00,   0.00, 1017.3,   56.5, -999.0
16-06-2023, 00:21:54,    130,    0.0,   14.9,   0.00,   0.00, 1017.3,   56.6, -999.0
16-06-2023, 00:22:05,    130,    0.0,   14.9,   0.00,   0.00, 1017.3,   56.9, -999.0
16-06-2023, 00:22:15,    130,    0.0,   14.9,   0.00,   0.00, 1017.3,   56.6, -999.0
16-06-2023, 00:22:25,    130,    0.0,   14.9,   0.00,   0.00, 1017.3,   56.7, -999.0
16-06-2023, 00:22:34,    130,    0.0,   14.9,   0.00,   0.00, 1017.3,   56.8, -999.0
16-06-2023, 00:22:45,    130,    0.0,   14.9,   0.00,   0.00, 1017.3,   56.8, -999.0
16-06-2023, 00:22:55,    131,    0.0,   14.9,   0.00,   0.00, 1017.3,   56.8, -999.0
16-06-2023, 00:23:04,    129,    0.0,   14.9,   0.00,   0.00, 1017.3,   56.7, -999.0
16-06-2023, 00:23:15,    131,    0.0,   14.9,   0.00,   0.00, 1017.3,   56.9, -999.0
16-06-2023, 00:23:25,    130,    0.0,   14.9,   0.00,   0.00, 1017.3,   56.6, -999.0
16-06-2023, 00:23:34,    130,    0.0,   14.9,   0.00,   0.00, 1017.3,   56.7, -999.0
16-06-2023, 00:23:44,    130,    0.0,   14.9,   0.00,   0.00, 1017.3,   56.7, -999.0
16-06-2023, 00:23:55,    130,    0.0,   14.8,   0.00,   0.00, 1017.3,   56.8, -999.0
16-06-2023, 00:24:04,    130,    0.0,   14.8,   0.00,   0.00, 1017.3,   56.9, -999.0
16-06-2023, 00:24:14,    130,    0.0,   14.9,   0.00,   0.00, 1017.3,   56.8, -999.0
16-06-2023, 00:24:24,    130,    0.0,   14.8,   0.00,   0.00, 1017.3,   56.8, -999.0
16-06-2023, 00:24:35,    130,    0.0,   14.9,   0.00,   0.00, 1017.3,   56.8, -999.0
16-06-2023, 00:24:44,    130,    0.0,   14.9,   0.00,   0.00, 1017.3,   56.8, -999.0
16-06-2023, 00:24:54,    130,    0.0,   14.8,   0.00,   0.00, 1017.3,   56.8, -999.0
16-06-2023, 00:25:04,    130,    0.0,   14.8,   0.00,   0.00, 1017.3,   56.8, -999.0
16-06-2023, 00:25:14,    130,    0.0,   14.9,   0.00,   0.00, 1017.3,   56.7, -999.0
16-06-2023, 00:25:24,    130,    0.0,   14.8,   0.00,   0.00, 1017.3,   56.6, -999.0
16-06-2023, 00:25:34,    130,    0.0,   14.9,   0.00,   0.00, 1017.3,   56.6, -999.0
16-06-2023, 00:25:44,    131,    0.0,   14.9,   0.00,   0.00, 1017.3,   56.5, -999.0
16-06-2023, 00:25:54,    130,    0.0,   15.0,   0.00,   0.00, 1017.3,   56.5, -999.0
16-06-2023, 00:26:04,    131,    0.0,   15.0,   0.00,   0.00, 1017.3,   56.6, -999.0
16-06-2023, 00:26:14,    126,    0.0,   15.1,   0.00,   0.00, 1017.3,   56.5, -999.0
16-06-2023, 00:26:24,    130,    0.0,   15.1,   0.00,   0.00, 1017.3,   56.3, -999.0
16-06-2023, 00:26:34,    130,    0.0,   15.2,   0.00,   0.00, 1017.3,   56.1, -999.0
16-06-2023, 00:26:44,    130,    0.0,   15.3,   0.00,   0.00, 1017.3,   56.0, -999.0
16-06-2023, 00:26:54,    130,    0.0,   15.4,   0.00,   0.00, 1017.3,   55.8, -999.0
16-06-2023, 00:27:04,    130,    0.0,   15.5,   0.00,   0.00, 1017.3,   55.8, -999.0
16-06-2023, 00:27:14,    130,    0.0,   15.5,   0.00,   0.00, 1017.3,   55.5, -999.0
16-06-2023, 00:27:24,    129,    0.0,   15.4,   0.00,   0.00, 1017.3,   55.5, -999.0
16-06-2023, 00:27:34,    130,    0.0,   15.6,   0.00,   0.00, 1017.3,   55.3, -999.0
16-06-2023, 00:27:44,    130,    0.0,   15.7,   0.00,   0.00, 1017.3,   55.3, -999.0
16-06-2023, 00:27:54,    130,    0.0,   15.7,   0.00,   0.00, 1017.3,   55.2, -999.0
16-06-2023, 00:28:04,    130,    0.0,   15.7,   0.00,   0.00, 1017.3,   55.3, -999.0
16-06-2023, 00:28:14,    130,    0.0,   15.7,   0.00,   0.00, 1017.3,   55.2, -999.0
16-06-2023, 00:28:24,    130,    0.0,   15.8,   0.00,   0.00, 1017.3,   55.2, -999.0
16-06-2023, 00:28:34,    130,    0.0,   15.8,   0.00,   0.00, 1017.3,   55.2, -999.0
16-06-2023, 00:28:44,    130,    0.0,   15.8,   0.00,   0.00, 1017.3,   55.1, -999.0
16-06-2023, 00:28:54,    130,    0.0,   15.8,   0.00,   0.00, 1017.3,   55.1, -999.0
16-06-2023, 00:29:04,    130,    0.0,   15.7,   0.00,   0.00, 1017.3,   55.2, -999.0
16-06-2023, 00:29:14,    130,    0.0,   15.8,   0.00,   0.00, 1017.3,   55.2, -999.0
16-06-2023, 00:29:24,    130,    0.0,   15.7,   0.00,   0.00, 1017.3,   55.0, -999.0
16-06-2023, 00:29:35,    132,    0.0,   15.7,   0.00,   0.00, 1017.3,   54.9, -999.0
16-06-2023, 00:29:44,    130,    0.0,   15.8,   0.00,   0.00, 1017.3,   54.9, -999.0
16-06-2023, 00:29:54,    132,    0.0,   15.7,   0.00,   0.00, 1017.3,   55.1, -999.0
16-06-2023, 00:30:03,    130,    0.0,   15.8,   0.00,   0.00, 1017.3,   55.1, -999.0
16-06-2023, 00:30:13,    129,    0.0,   15.8,   0.00,   0.00, 1017.3,   55.2, -999.0
16-06-2023, 00:30:24,    130,    0.0,   15.7,   0.00,   0.00, 1017.3,   55.2, -999.0
16-06-2023, 00:30:34,    129,    0.0,   15.7,   0.00,   0.00, 1017.3,   55.2, -999.0
16-06-2023, 00:30:43,    130,    0.0,   15.6,   0.00,   0.00, 1017.3,   55.0, -999.0
16-06-2023, 00:30:53,    139,    0.0,   15.7,   0.00,   0.00, 1017.3,   55.0, -999.0
16-06-2023, 00:31:04,    129,    0.0,   15.8,   0.00,   0.00, 1017.3,   54.8, -999.0
16-06-2023, 00:31:13,    130,    0.0,   15.7,   0.00,   0.00, 1017.3,   54.7, -999.0
16-06-2023, 00:31:23,    130,    0.0,   15.8,   0.00,   0.00, 1017.3,   54.8, -999.0
16-06-2023, 00:31:34,    130,    0.0,   15.8,   0.00,   0.00, 1017.3,   54.7, -999.0
16-06-2023, 00:31:43,    129,    0.0,   15.8,   0.00,   0.00, 1017.3,   54.7, -999.0
16-06-2023, 00:31:53,    130,    0.0,   15.8,   0.00,   0.00, 1017.3,   54.8, -999.0
16-06-2023, 00:32:03,    130,    0.0,   15.7,   0.00,   0.00, 1017.3,   54.7, -999.0
16-06-2023, 00:32:14,    130,    0.0,   15.9,   0.00,   0.00, 1017.3,   54.5, -999.0
16-06-2023, 00:32:23,    130,    0.0,   15.8,   0.00,   0.00, 1017.3,   54.5, -999.0
16-06-2023, 00:32:33,    130,    0.0,   15.8,   0.00,   0.00, 1017.3,   54.4, -999.0
16-06-2023, 00:32:43,    130,    0.0,   15.8,   0.00,   0.00, 1017.3,   54.6, -999.0
16-06-2023, 00:32:53,    130,    0.0,   15.8,   0.00,   0.00, 1017.3,   54.6, -999.0
16-06-2023, 00:33:03,    130,    0.0,   15.8,   0.00,   0.00, 1017.3,   54.5, -999.0
16-06-2023, 00:33:13,    130,    0.0,   15.7,   0.00,   0.00, 1017.3,   54.5, -999.0
16-06-2023, 00:33:23,    129,    0.0,   15.7,   0.00,   0.00, 1017.3,   54.4, -999.0
16-06-2023, 00:33:33,    130,    0.0,   15.8,   0.00,   0.00, 1017.3,   54.4, -999.0
16-06-2023, 00:33:43,    130,    0.0,   15.8,   0.00,   0.00, 1017.3,   54.4, -999.0
16-06-2023, 00:33:53,    130,    0.0,   15.8,   0.00,   0.00, 1017.3,   54.3, -999.0
16-06-2023, 00:34:03,    130,    0.0,   15.8,   0.00,   0.00, 1017.3,   54.3, -999.0
16-06-2023, 00:34:13,    130,    0.0,   15.8,   0.00,   0.00, 1017.3,   54.2, -999.0
16-06-2023, 00:34:23,    130,    0.0,   15.8,   0.00,   0.00, 1017.3,   54.1, -999.0
16-06-2023, 00:34:33,    130,    0.0,   15.9,   0.00,   0.00, 1017.3,   54.0, -999.0
16-06-2023, 00:34:43,    130,    0.0,   15.9,   0.00,   0.00, 1017.3,   54.0, -999.0
16-06-2023, 00:34:53,    129,    0.0,   15.9,   0.00,   0.00, 1017.3,   54.0, -999.0
16-06-2023, 00:35:03,    131,    0.0,   15.9,   0.00,   0.00, 1017.3,   54.0, -999.0
16-06-2023, 00:35:13,    130,    0.0,   15.9,   0.00,   0.00, 1017.3,   54.2, -999.0
16-06-2023, 00:35:23,    130,    0.0,   15.8,   0.00,   0.00, 1017.3,   54.2, -999.0
16-06-2023, 00:35:33,    130,    0.0,   15.9,   0.00,   0.00, 1017.3,   54.2, -999.0
16-06-2023, 00:35:43,    130,    0.0,   15.9,   0.00,   0.00, 1017.3,   54.0, -999.0
16-06-2023, 00:35:53,    130,    0.0,   15.9,   0.00,   0.00, 1017.3,   54.0, -999.0
16-06-2023, 00:36:03,    130,    0.0,   16.0,   0.00,   0.00, 1017.3,   54.0, -999.0
16-06-2023, 00:36:13,    129,    0.0,   15.8,   0.00,   0.00, 1017.3,   53.9, -999.0
16-06-2023, 00:36:23,    130,    0.0,   15.9,   0.00,   0.00, 1017.3,   54.1, -999.0
16-06-2023, 00:36:33,    130,    0.0,   15.9,   0.00,   0.00, 1017.3,   54.0, -999.0
16-06-2023, 00:36:43,    130,    0.0,   15.9,   0.00,   0.00, 1017.3,   54.0, -999.0
16-06-2023, 00:36:53,    130,    0.0,   15.9,   0.00,   0.00, 1017.3,   54.0, -999.0
16-06-2023, 00:37:03,    130,    0.0,   15.8,   0.00,   0.00, 1017.3,   53.8, -999.0
16-06-2023, 00:37:12,    130,    0.0,   15.9,   0.00,   0.00, 1017.3,   53.9, -999.0
16-06-2023, 00:37:23,    130,    0.0,   15.9,   0.00,   0.00, 1017.3,   54.0, -999.0
16-06-2023, 00:37:33,    130,    0.0,   15.8,   0.00,   0.00, 1017.3,   53.7, -999.0
16-06-2023, 00:37:42,    130,    0.0,   15.9,   0.00,   0.00, 1017.3,   53.8, -999.0
16-06-2023, 00:37:52,    130,    0.0,   15.8,   0.00,   0.00, 1017.3,   53.8, -999.0
16-06-2023, 00:38:03,    130,    0.0,   15.8,   0.00,   0.00, 1017.3,   54.0, -999.0
16-06-2023, 00:38:13,    130,    0.0,   15.7,   0.00,   0.00, 1017.3,   54.1, -999.0
16-06-2023, 00:38:22,    130,    0.0,   15.8,   0.00,   0.00, 1017.3,   54.2, -999.0
16-06-2023, 00:38:32,    130,    0.0,   15.8,   0.00,   0.00, 1017.3,   54.1, -999.0
16-06-2023, 00:38:43,    130,    0.0,   15.8,   0.00,   0.00, 1017.3,   54.1, -999.0
16-06-2023, 00:38:52,    130,    0.0,   15.8,   0.00,   0.00, 1017.3,   54.0, -999.0
16-06-2023, 00:39:02,    130,    0.0,   15.8,   0.00,   0.00, 1017.3,   53.8, -999.0
16-06-2023, 00:39:12,    130,    0.0,   15.8,   0.00,   0.00, 1017.3,   53.9, -999.0
16-06-2023, 00:39:22,    130,    0.0,   15.9,   0.00,   0.00, 1017.3,   53.9, -999.0
16-06-2023, 00:39:32,    130,    0.0,   15.8,   0.00,   0.00, 1017.3,   54.0, -999.0
16-06-2023, 00:39:42,    130,    0.0,   15.8,   0.00,   0.00, 1017.3,   53.9, -999.0
16-06-2023, 00:39:52,    130,    0.0,   15.8,   0.00,   0.00, 1017.3,   54.0, -999.0
16-06-2023, 00:40:02,    130,    0.0,   15.8,   0.00,   0.00, 1017.3,   54.0, -999.0
16-06-2023, 00:40:12,    130,    0.0,   15.8,   0.00,   0.00, 1017.3,   54.0, -999.0
16-06-2023, 00:40:22,    130,    0.0,   15.7,   0.00,   0.00, 1017.3,   54.0, -999.0
16-06-2023, 00:40:32,    130,    0.0,   15.7,   0.00,   0.00, 1017.3,   54.1, -999.0
16-06-2023, 00:40:42,    130,    0.0,   15.7,   0.00,   0.00, 1017.3,   54.0, -999.0
16-06-2023, 00:40:52,    129,    0.0,   15.7,   0.00,   0.00, 1017.3,   54.3, -999.0
16-06-2023, 00:41:02,    130,    0.0,   15.6,   0.00,   0.00, 1017.2,   54.0, -999.0
16-06-2023, 00:41:12,    130,    0.0,   15.6,   0.00,   0.00, 1017.3,   54.1, -999.0
16-06-2023, 00:41:22,    130,    0.0,   15.7,   0.00,   0.00, 1017.3,   54.4, -999.0
16-06-2023, 00:41:32,    130,    0.0,   15.8,   0.00,   0.00, 1017.3,   54.2, -999.0
16-06-2023, 00:41:42,    130,    0.0,   15.7,   0.00,   0.00, 1017.2,   54.3, -999.0
16-06-2023, 00:41:52,    130,    0.0,   15.8,   0.00,   0.00, 1017.3,   54.1, -999.0
16-06-2023, 00:42:02,    130,    0.0,   15.8,   0.00,   0.00, 1017.2,   54.3, -999.0
16-06-2023, 00:42:12,    130,    0.0,   15.8,   0.00,   0.00, 1017.2,   53.9, -999.0
16-06-2023, 00:42:22,    130,    0.0,   15.6,   0.00,   0.00, 1017.2,   53.9, -999.0
16-06-2023, 00:42:32,    130,    0.0,   15.8,   0.00,   0.00, 1017.2,   53.9, -999.0
16-06-2023, 00:42:42,    129,    0.0,   15.7,   0.00,   0.00, 1017.2,   54.0, -999.0
16-06-2023, 00:42:52,    130,    0.0,   15.7,   0.00,   0.00, 1017.2,   53.9, -999.0
16-06-2023, 00:43:02,    130,    0.0,   15.7,   0.00,   0.00, 1017.3,   54.1, -999.0
16-06-2023, 00:43:12,    130,    0.0,   15.8,   0.00,   0.00, 1017.3,   54.1, -999.0
16-06-2023, 00:43:22,    125,    0.0,   15.7,   0.00,   0.00, 1017.2,   54.1, -999.0
16-06-2023, 00:43:32,    130,    0.0,   15.8,   0.00,   0.00, 1017.3,   54.1, -999.0
16-06-2023, 00:43:41,    130,    0.0,   15.7,   0.00,   0.00, 1017.3,   54.1, -999.0
16-06-2023, 00:43:52,    130,    0.0,   15.6,   0.00,   0.00, 1017.2,   54.0, -999.0
16-06-2023, 00:44:02,    129,    0.0,   15.6,   0.00,   0.00, 1017.3,   54.0, -999.0
16-06-2023, 00:44:11,    129,    0.0,   15.8,   0.00,   0.00, 1017.2,   54.0, -999.0
16-06-2023, 00:44:22,    130,    0.0,   15.8,   0.00,   0.00, 1017.3,   54.0, -999.0
16-06-2023, 00:44:32,    130,    0.0,   15.7,   0.00,   0.00, 1017.3,   54.0, -999.0
16-06-2023, 00:44:42,    129,    0.0,   15.7,   0.00,   0.00, 1017.2,   53.9, -999.0
16-06-2023, 00:44:51,    130,    0.0,   15.7,   0.00,   0.00, 1017.2,   54.0, -999.0
16-06-2023, 00:45:02,    130,    0.0,   15.7,   0.00,   0.00, 1017.3,   54.0, -999.0
16-06-2023, 00:45:12,    130,    0.0,   15.7,   0.00,   0.00, 1017.2,   53.8, -999.0
16-06-2023, 00:45:21,    130,    0.0,   15.7,   0.00,   0.00, 1017.3,   54.0, -999.0
16-06-2023, 00:45:31,    130,    0.0,   15.6,   0.00,   0.00, 1017.3,   54.1, -999.0
16-06-2023, 00:45:42,    130,    0.0,   15.7,   0.00,   0.00, 1017.3,   54.0, -999.0
16-06-2023, 00:45:51,    130,    0.0,   15.7,   0.00,   0.00, 1017.2,   54.3, -999.0
16-06-2023, 00:46:01,    130,    0.0,   15.7,   0.00,   0.00, 1017.2,   54.3, -999.0
16-06-2023, 00:46:11,    130,    0.0,   15.6,   0.00,   0.00, 1017.2,   54.2, -999.0
16-06-2023, 00:46:22,    130,    0.0,   15.7,   0.00,   0.00, 1017.3,   54.1, -999.0
16-06-2023, 00:46:31,    130,    0.0,   15.6,   0.00,   0.00, 1017.2,   54.1, -999.0
16-06-2023, 00:46:41,    130,    0.0,   15.7,   0.00,   0.00, 1017.3,   54.1, -999.0
16-06-2023, 00:46:51,    129,    0.0,   15.7,   0.00,   0.00, 1017.2,   54.2, -999.0